Regional Weather Roundup
Issued by NWS Northern Indiana

Home | Current Version | Previous Version | Text Only | Print | Product List | Glossary On
Versions: 1 2 3 4 5 6 7 8 9 10 11 12 13 14 15 16 17 18 19 20 21 22 23 24 25 26 27 28 29 30 31 32 33 34 35 36 37 38 39 40 41 42 43 44 45 46 47 48 49 50
000
ASUS43 KIWX 301610
RWRIWX

KIWX WEATHER ROUNDUP
NATIONAL WEATHER SERVICE NORTHERN INDIANA
1200 PM EDT SAT AUG 30 2014

NOTE: "FAIR" INDICATES FEW OR NO CLOUDS BELOW 12,000 FEET WITH NO
SIGNIFICANT WEATHER AND/OR OBSTRUCTIONS TO VISIBILITY.

* THESE STATIONS ARE NOT UNDER NWS QUALITY CONTROL. THEY ALSO MAY NOT
  REPORT WEATHER SUCH AS PRECIPITATION OR FOG.

INZ001>027-301700-
NORTHERN INDIANA

CITY           SKY/WX    TMP DP  RH WIND       PRES   REMARKS
GARY*          PTSUNNY   79  70  73 SW12      29.89S
VALPARAISO     CLOUDY    78  69  73 S13       29.92S
MICHIGAN CITY* CLOUDY    77  68  73 S8G20     29.90S
LAPORTE*       CLOUDY    77  69  77 SW14G20   29.92F
KNOX*          CLOUDY    77  69  75 S14       29.92S
SOUTH BEND     PTSUNNY   78  70  76 SW15G22   29.92S
GOSHEN         PTSUNNY   78  70  76 S15       29.94F
MONTICELLO*    MOSUNNY   78  71  77 SW12G18   29.95S
LOGANSPORT*    PTSUNNY   79  68  69 S12G17    29.97F
ROCHESTER*     PTSUNNY   79  70  73 SW14G23   29.97R
WARSAW*        PTSUNNY   77  68  73 SW10G17   29.96S
ANGOLA*        PTSUNNY   79  72  78 SW13      29.96S
FORT WAYNE     CLOUDY    78  69  73 SW14      29.99S
HUNTINGTON*    CLOUDY    76  68  75 SW12G17   29.99R
PERU/GRISSOM   PTSUNNY   78  73  82 SW13      29.98S
MARION*        CLOUDY    78  67  68 SW17      30.01S

$$
INZ028>050-301700-
CENTRAL INDIANA

CITY           SKY/WX    TMP DP  RH WIND       PRES   REMARKS
LAFAYETTE      MOSUNNY   79  70  74 S10G20    29.97R
KOKOMO*        CLOUDY    75  68  78 SW15G24   30.00S
MUNCIE*        CLOUDY    76  67  73 SW15      30.02R
INDIANAPOLIS   LGT RAIN  75  69  81 S15       30.02R

$$
MIZ043>046-050>051-056>058-064>065-071>073-077>080-301700-
SOUTHWEST LOWER MICHIGAN

CITY           SKY/WX    TMP DP  RH WIND       PRES   REMARKS
BATTLE CREEK   CLOUDY    75  68  78 S16G24    29.93F
BENTON HARBOR  PTSUNNY   79  70  74 S14       29.88S
COLDWATER*     CLOUDY    77  69  77 SW10      29.96R
HILLSDALE*     CLOUDY    78  69  73 SW9       29.97S
HOLLAND        PTSUNNY   79  70  74 SW17      29.88S
GRAND RAPIDS   CLOUDY    77  74  90 S13       29.88F
KALAMAZOO      CLOUDY    77  69  76 S14       29.91F
STURGIS*         N/A     75  70  83 SW15G24   29.94F
THREE RIVERS*  PTSUNNY   79  70  74 S14G21    29.92F

$$
OHZ001>008-015>018-024>025-301700-
NORTHWEST OHIO

CITY           SKY/WX    TMP DP  RH WIND       PRES   REMARKS
WAUSEON*       FAIR      81  68  65 SW14G22   29.97S
DEFIANCE       CLOUDY    81  66  60 SW15G21   29.97S
FINDLAY        PTSUNNY   83  67  58 SW16      30.00S
TOLEDO EXPRESS CLOUDY    82  66  58 SW12      29.97S
TOLEDO METCALF PTSUNNY   84  66  54 SW16G23   29.98S
LIMA           PTSUNNY   83  69  62 S12G20    30.02S

$$
&&


USA.gov is the U.S. government's official web portal to all federal, state and local government web resources and services.